Hourly Weather A Coruna

Today, 1 November, Sunday

Time Temperature Precipitation Wind Pressure Humidity
00:00 +19°C° 0.1 mm 6 mps 763 mmHg 89%
01:00 +19°C° 0.1 mm 6 mps 763 mmHg 89%
02:00 +20°C° 0.1 mm 6 mps 762 mmHg 89%
03:00 +20°C° 0.2 mm 6 mps 762 mmHg 89%
04:00 +20°C° 0.2 mm 6 mps 763 mmHg 89%
05:00 +20°C° 0.2 mm 6 mps 763 mmHg 90%
06:00 +20°C° 0.1 mm 6 mps 763 mmHg 89%
07:00 +20°C° 0.1 mm 6 mps 763 mmHg 89%
08:00 +20°C° 0.1 mm 6 mps 763 mmHg 89%
09:00 +20°C° 0 mm 6 mps 763 mmHg 87%
10:00 +21°C° 0 mm 6 mps 763 mmHg 85%
11:00 +21°C° 0 mm 6 mps 763 mmHg 83%
12:00 +21°C° 0 mm 6 mps 763 mmHg 83%
13:00 +21°C° 0 mm 6 mps 762 mmHg 82%
14:00 +21°C° 0 mm 6 mps 762 mmHg 82%
15:00 +21°C° 0 mm 6 mps 762 mmHg 83%
16:00 +20°C° 0 mm 6 mps 762 mmHg 84%
17:00 +20°C° 0 mm 6 mps 762 mmHg 85%
18:00 +20°C° 0 mm 6 mps 762 mmHg 85%
19:00 +20°C° 0 mm 6 mps 762 mmHg 85%
20:00 +20°C° 0 mm 6 mps 762 mmHg 85%
21:00 +20°C° 0 mm 6 mps 762 mmHg 85%
22:00 +20°C° 0 mm 6 mps 762 mmHg 85%
23:00 +20°C° 0 mm 7 mps 761 mmHg 85%

Tomorrow, 2 November, Monday

Time Temperature Precipitation Wind Pressure Humidity
00:00 +20°C° 0 mm 7 mps 761 mmHg 86%
01:00 +20°C° 0 mm 7 mps 761 mmHg 86%
02:00 +20°C° 0 mm 7 mps 761 mmHg 87%
03:00 +19°C° 0.3 mm 6 mps 761 mmHg 89%
04:00 +19°C° 0.3 mm 6 mps 761 mmHg 91%
05:00 +19°C° 0.3 mm 6 mps 761 mmHg 93%
06:00 +17°C° 1.2 mm 5 mps 762 mmHg 94%
07:00 +16°C° 1.2 mm 5 mps 763 mmHg 95%
08:00 +17°C° 1.2 mm 4 mps 763 mmHg 97%
09:00 +15°C° 0.4 mm 4 mps 764 mmHg 95%
10:00 +14°C° 0.4 mm 4 mps 765 mmHg 94%
11:00 +13°C° 0.4 mm 4 mps 765 mmHg 93%
12:00 +13°C° 0.1 mm 4 mps 766 mmHg 91%
13:00 +13°C° 0.1 mm 3 mps 766 mmHg 88%
14:00 +13°C° 0.1 mm 3 mps 766 mmHg 86%
15:00 +12°C° 0 mm 3 mps 767 mmHg 87%
16:00 +12°C° 0 mm 3 mps 767 mmHg 88%
17:00 +12°C° 0 mm 2 mps 768 mmHg 88%
18:00 +10°C° 0 mm 2 mps 768 mmHg 89%
19:00 +10°C° 0 mm 2 mps 769 mmHg 89%
20:00 +9°C° 0 mm 2 mps 769 mmHg 90%
21:00 +10°C° 0 mm 1 mps 770 mmHg 90%
22:00 +10°C° 0 mm 1 mps 770 mmHg 89%
23:00 +9°C° 0 mm 1 mps 770 mmHg 89%

Day after tomorrow, 3 November, Tuesday

Time Temperature Precipitation Wind Pressure Humidity
00:00 +9°C° 0 mm 1 mps 770 mmHg 88%
01:00 +9°C° 0 mm 1 mps 770 mmHg 88%
02:00 +9°C° 0 mm 1 mps 770 mmHg 87%
03:00 +9°C° 0 mm 1 mps 770 mmHg 87%
04:00 +8°C° 0 mm 2 mps 771 mmHg 87%
05:00 +8°C° 0 mm 2 mps 771 mmHg 87%
06:00 +9°C° 0.1 mm 3 mps 771 mmHg 86%
07:00 +10°C° 0.1 mm 4 mps 772 mmHg 86%
08:00 +11°C° 0.1 mm 4 mps 772 mmHg 86%
09:00 +12°C° 0 mm 5 mps 772 mmHg 80%
10:00 +12°C° 0 mm 5 mps 772 mmHg 75%
11:00 +13°C° 0 mm 6 mps 772 mmHg 69%
12:00 +13°C° 0 mm 6 mps 772 mmHg 68%
13:00 +13°C° 0 mm 6 mps 772 mmHg 67%
14:00 +13°C° 0 mm 6 mps 772 mmHg 66%
15:00 +11°C° 0 mm 6 mps 772 mmHg 70%
16:00 +10°C° 0 mm 5 mps 772 mmHg 75%
17:00 +9°C° 0 mm 5 mps 772 mmHg 79%
18:00 +8°C° 0 mm 5 mps 772 mmHg 78%
19:00 +8°C° 0 mm 5 mps 772 mmHg 78%
20:00 +8°C° 0 mm 5 mps 772 mmHg 77%
21:00 +8°C° 0 mm 4 mps 772 mmHg 78%
22:00 +8°C° 0 mm 4 mps 772 mmHg 78%
23:00 +7°C° 0 mm 4 mps 772 mmHg 79%

4 November, Wednesday

Time Temperature Precipitation Wind Pressure Humidity
00:00 +7°C° 0 mm 4 mps 771 mmHg 79%
01:00 +7°C° 0 mm 4 mps 771 mmHg 78%
02:00 +7°C° 0 mm 4 mps 770 mmHg 78%
03:00 +7°C° 0 mm 4 mps 770 mmHg 79%
04:00 +7°C° 0 mm 4 mps 769 mmHg 79%
05:00 +8°C° 0 mm 3 mps 769 mmHg 80%
06:00 +7°C° 0 mm 4 mps 769 mmHg 78%
07:00 +8°C° 0 mm 4 mps 768 mmHg 75%
08:00 +10°C° 0 mm 4 mps 768 mmHg 72%
09:00 +11°C° 0 mm 4 mps 768 mmHg 68%
10:00 +12°C° 0 mm 5 mps 767 mmHg 64%
11:00 +13°C° 0 mm 5 mps 767 mmHg 59%
12:00 +13°C° 0.1 mm 5 mps 766 mmHg 61%
13:00 +11°C° 0.1 mm 6 mps 765 mmHg 63%
14:00 +11°C° 0.1 mm 6 mps 765 mmHg 66%
15:00 +10°C° 0.1 mm 6 mps 764 mmHg 70%
16:00 +9°C° 0.1 mm 5 mps 764 mmHg 74%
17:00 +8°C° 0.1 mm 5 mps 764 mmHg 79%
18:00 +8°C° 0.1 mm 5 mps 764 mmHg 79%
19:00 +7°C° 0.1 mm 6 mps 763 mmHg 80%
20:00 +7°C° 0.1 mm 6 mps 763 mmHg 81%
21:00 +7°C° 0 mm 6 mps 763 mmHg 80%
22:00 +6°C° 0 mm 7 mps 762 mmHg 79%
23:00 +6°C° 0 mm 7 mps 762 mmHg 78%

5 November, Thursday

Time Temperature Precipitation Wind Pressure Humidity
00:00 +8°C° 0 mm 7 mps 761 mmHg 76%
01:00 +7°C° 0 mm 8 mps 761 mmHg 73%
02:00 +7°C° 0 mm 8 mps 760 mmHg 71%
03:00 +7°C° 0 mm 9 mps 760 mmHg 72%
04:00 +7°C° 0 mm 9 mps 760 mmHg 74%
05:00 +8°C° 0 mm 10 mps 760 mmHg 75%
06:00 +8°C° 0 mm 9 mps 759 mmHg 75%
07:00 +10°C° 0 mm 9 mps 759 mmHg 74%
08:00 +11°C° 0 mm 9 mps 758 mmHg 74%
09:00 +12°C° 0 mm 9 mps 758 mmHg 71%
10:00 +13°C° 0 mm 9 mps 757 mmHg 68%
11:00 +15°C° 0 mm 9 mps 757 mmHg 65%
12:00 +15°C° 0 mm 8 mps 756 mmHg 67%
13:00 +15°C° 0 mm 7 mps 756 mmHg 69%
14:00 +15°C° 0 mm 6 mps 755 mmHg 70%
15:00 +14°C° 0 mm 6 mps 755 mmHg 73%
16:00 +14°C° 0 mm 6 mps 755 mmHg 75%
17:00 +13°C° 0 mm 6 mps 755 mmHg 78%
18:00 +13°C° 0 mm 5 mps 755 mmHg 78%
19:00 +13°C° 0 mm 4 mps 755 mmHg 79%
20:00 +13°C° 0 mm 4 mps 755 mmHg 79%
21:00 +13°C° 0 mm 3 mps 755 mmHg 80%
22:00 +12°C° 0 mm 3 mps 755 mmHg 81%
23:00 +12°C° 0 mm 3 mps 755 mmHg 82%

6 November, Friday

Time Temperature Precipitation Wind Pressure Humidity
00:00 +12°C° 0 mm 3 mps 754 mmHg 81%
01:00 +13°C° 0 mm 3 mps 754 mmHg 80%
02:00 +13°C° 0 mm 3 mps 754 mmHg 79%
03:00 +14°C° 0 mm 2 mps 754 mmHg 80%
04:00 +13°C° 0 mm 2 mps 753 mmHg 81%
05:00 +13°C° 0 mm 2 mps 753 mmHg 83%
06:00 +14°C° 0 mm 2 mps 753 mmHg 81%
07:00 +14°C° 0 mm 2 mps 753 mmHg 78%
08:00 +15°C° 0 mm 2 mps 753 mmHg 76%
09:00 +16°C° 0 mm 2 mps 753 mmHg 70%
10:00 +18°C° 0 mm 2 mps 752 mmHg 63%
11:00 +19°C° 0 mm 2 mps 752 mmHg 56%
12:00 +19°C° 0 mm 2 mps 752 mmHg 60%
13:00 +19°C° 0 mm 3 mps 751 mmHg 63%
14:00 +18°C° 0 mm 3 mps 751 mmHg 67%
15:00 +17°C° 0.2 mm 3 mps 751 mmHg 75%
16:00 +16°C° 0.2 mm 3 mps 751 mmHg 83%
17:00 +14°C° 0.2 mm 3 mps 751 mmHg 91%
18:00 +13°C° 1.3 mm 3 mps 751 mmHg 93%
19:00 +14°C° 1.3 mm 2 mps 751 mmHg 95%
20:00 +14°C° 1.3 mm 2 mps 751 mmHg 97%
21:00 +14°C° 0.8 mm 2 mps 751 mmHg 96%
22:00 +13°C° 0.8 mm 1 mps 751 mmHg 96%
23:00 +13°C° 0.8 mm 1 mps 752 mmHg 95%
Show more

We Need Your Consent

Meteoprog and our Service Providers may store and access personal data such as cookies, device identifiers or other similar technologies on your device and process such data to personalise content and ads, as well as provide social media features and to analyse the traffic.

  • Store and/or access information on your device

    Cookies, device identifiers or other information can be stored or accessed on your device for the purposes indicated above.

  • Personalised ads and content, ad and content measurement, audience insights, and products development

    Ads and content can be personalised based on a profile. More data can be added to better personalise ads and content. Ad and content performance can be measured. Insights about the audience who saw the ads and content can be derived. Such data can be used to develop or improve user’s experience, systems and software.

By clicking ‘I Agree’ you will allow the use of indicated cookies, device identifiers, web beacons or other similar technologies. Your settings can be changed in the browser on your device.

For certain purposes, legitimate interests may be relied on, rather than consent. You can read more about this in our Privacy and Cookie Policy.